[[{"header":{"parameterUnit":"m.s-1","parameterCategory":1,"la1":30.2991,"la2":30.254,"lo1":-89.0895,"lo2":-89.0444,"dy":0.0017,"dx":0.0017,"nx":28,"ny":28,"refTime":"2024-07-20T03:00:00:Z","depth":0,"parameterNumber":2,"parameterNumberName":"U-component_of_WINDS"},"data":[0,0,0,0,0,0,0,0,0,0,0,0,0,0,0,0,0,0,0,0,0,0,0,0,0,0,0,0,0,0,0,0,0,0,0,0,0,0,0,0,0,0,0,0,0,0,0,0,0,0,0,0,0,0,0,0,0,0,3.9932,3.9933,0,3.9983,3.9984,3.9985,3.9953,3.9951,3.995,3.9948,4.0,4.0003,4.0005,0,0,0,0,0,0,0,0,0,0,0,0,0,3.9805,3.9807,3.9932,3.9933,3.9933,3.9983,3.9984,3.9985,3.9953,3.9951,3.9949,3.9948,3.9999,4.0002,4.0006,0,0,0,0,0,0,0,0,0,0,0,0,0,3.9859,3.9808,3.9932,3.9924,3.9923,3.9983,3.9984,3.9985,3.9953,3.9951,3.9949,3.9947,3.9998,4.0002,4.0006,4.0077,0,0,4.0019,4.002,0,0,0,0,0,0,0,0,3.9856,3.9863,3.9924,3.9924,3.9924,3.9959,3.9958,4.0016,3.9954,3.9942,3.9948,3.9946,3.9988,3.9993,4.0007,4.0079,4.0081,4.0019,4.0022,4.0023,4.0025,0,0,0,0,0,0,0,3.9852,3.9861,3.9952,3.9925,3.9925,3.9917,3.9922,3.9969,3.9977,3.9943,3.9941,3.9947,3.9988,4.0004,4.0008,4.0082,4.0019,4.0023,4.0025,4.0027,4.0212,4.0215,0,0,0,0,0,0,3.9849,3.9858,3.9951,3.9954,3.9884,3.9921,3.9927,3.995,3.9976,3.9978,3.9949,3.9946,3.9998,4.0004,4.001,4.0093,4.0023,4.0027,4.003,4.021,4.0213,4.0216,0,0,0,0,0,0,3.9846,3.9858,3.9949,3.9905,3.9916,3.9925,3.9952,3.9953,3.9968,3.9981,3.9982,3.9964,3.9996,4.0004,4.006,4.0095,4.0029,4.0033,4.0207,4.0211,4.0214,4.0261,0,0,0,0,0,0,3.9843,3.9857,3.9884,3.9906,3.9919,3.9998,3.9955,3.9955,3.9976,3.9972,3.9995,3.9997,3.9995,4.0054,4.0064,4.0099,4.0036,4.0204,4.0209,4.0213,4.0256,4.0266,4.0274,0,0,0,0,0,3.9838,3.9896,3.9886,3.9897,3.9953,4.0001,4.0008,4.0004,3.9979,4.0006,4.0014,3.9996,4.009,4.006,4.0071,4.0108,4.0202,4.0207,4.0213,4.0252,4.0264,4.0274,0,0,0,0,0,0,3.9877,3.9898,3.9888,3.9954,3.9976,3.9995,4.0029,4.0017,4.0046,4.0041,4.0035,4.0041,4.0098,4.0109,4.0076,4.0177,4.0141,4.0149,4.0168,4.0179,4.0188,4.0183,4.004,0,0,0,0,0,3.9894,3.9931,3.9947,4.0004,4.0015,4.002,4.0041,4.0036,4.0058,4.0067,4.008,4.0101,4.0135,4.0158,4.019,4.0258,4.0262,4.0289,4.0297,4.0305,4.0311,4.0346,4.0358,4.0234,4.0234,4.0233,0,0,3.9928,3.9944,3.9967,4.0012,4.0028,4.0066,4.0028,4.007,4.0098,4.0074,4.0127,4.0136,4.016,4.0222,4.025,4.0233,4.0347,4.0312,4.0317,4.032,4.0353,4.0365,4.0376,4.0237,4.0237,4.0236,0,0,4.0009,4.0025,4.0073,4.009,4.0116,4.0119,4.013,4.0152,4.0157,4.021,4.0193,4.0225,4.0284,4.0301,4.0318,4.0405,4.0389,4.0415,4.046,4.0495,4.0505,4.0513,4.0543,4.0554,4.0422,4.0422,4.0422,0,4.0047,4.0104,4.01,4.0143,4.0162,4.0142,4.019,4.0207,4.0241,4.0255,4.0235,4.0308,4.0323,4.0387,4.0408,4.0423,4.0435,4.0412,4.0504,4.0512,4.052,4.0548,4.056,4.0425,4.0425,4.0424,4.0424,0,4.015,4.0189,4.0225,4.0259,4.0282,4.0328,4.0329,4.0354,4.0347,4.0352,4.0406,4.0423,4.0457,4.0472,4.0466,4.0536,4.0524,4.0505,4.0469,4.0535,4.0561,4.0572,4.0429,4.0428,4.0427,4.0427,0,0,4.0257,4.0287,4.03,4.0314,4.034,4.037,4.0414,4.0448,4.0468,4.0493,4.0528,4.0579,4.056,4.0579,4.0574,4.0605,4.067,4.0581,4.0581,4.0596,4.0747,4.0761,4.0773,4.0661,4.0663,4.0664,4.0744,0,4.0338,4.0415,4.0412,4.0484,4.0519,4.05,4.0538,4.0558,4.0564,4.0594,4.06,4.0635,4.0609,4.062,4.0649,4.0656,4.07,4.0651,4.0693,4.0694,4.0686,4.0787,4.0803,4.0877,4.0755,4.0756,4.0758,0,4.0444,4.0471,4.0546,4.0566,4.058,4.0615,4.0645,4.0675,4.0696,4.0698,4.0718,4.0709,4.0752,4.0716,4.0775,4.0741,4.0758,4.0765,4.0767,4.077,4.0729,4.0792,4.0901,4.0912,4.0774,4.0773,4.0772,0,4.0512,4.0568,4.062,4.0633,4.0657,4.0682,4.0693,4.0712,4.0732,4.0758,4.0771,4.0802,4.0819,4.0843,4.0842,4.0816,4.0901,4.0865,4.0903,4.0903,4.0921,4.092,4.1033,4.0934,4.0934,4.0934,4.0934,0,4.0603,4.0649,4.0651,4.0683,4.0734,4.0729,4.078,4.0788,4.0805,4.0838,4.0824,4.0854,4.0851,4.0882,4.0881,4.093,4.0938,4.0939,4.0939,4.094,4.094,4.095,4.0945,4.0937,4.0936,4.0936,4.0935,0,4.0688,4.0691,4.0746,4.0765,4.077,4.0807,4.0822,4.0852,4.0856,4.0897,4.0906,4.0913,4.0948,4.0949,4.099,4.0989,4.1048,4.1042,4.1041,4.1039,4.1076,4.1072,4.12,4.1216,4.1108,4.1109,4.1109,0,4.0745,4.078,4.0802,4.0823,4.0836,4.0869,4.089,4.0886,4.0908,4.0934,4.0961,4.0995,4.1021,4.1078,4.1086,4.1117,4.1111,4.1153,4.1115,4.1115,4.111,4.1107,4.111,4.116,4.1162,4.1163,4.1163,0,4.0846,4.0845,4.0875,4.0906,4.093,4.0954,4.0976,4.0994,4.0993,4.1018,4.1053,4.1074,4.1115,4.1149,4.1178,4.1189,4.1176,4.1175,4.1186,4.1187,4.1184,4.1185,4.1059,4.1172,4.1171,4.1171,4.117,4.117,4.0918,4.0948,4.0967,4.1001,4.1017,4.1037,4.1066,4.1073,4.1103,4.1136,4.1133,4.1172,4.1191,4.123,4.1243,4.1273,4.1258,4.1273,4.1277,4.128,4.1284,4.118,4.1279,4.1278,4.1278,4.1278,4.1278,0,4.1016,4.1028,4.1059,4.109,4.1116,4.1102,4.1125,4.1147,4.1182,4.1201,4.1228,4.1268,4.13,4.1311,4.1342,4.1364,4.1358,4.1372,4.1369,4.1372,4.1296,4.1283,4.1376,4.1376,4.1375,4.1375,4.1375,4.1375,4.1071,4.112,4.1122,4.1178,4.1189,4.1228,4.1242,4.126,4.1276,4.1321,4.1348,4.1354,4.137,4.1401,4.143,4.1432,4.1443,4.1459,4.1459,4.1387,4.1377,4.1368,4.1356,4.1462,4.1462,4.1532,4.1533,4.1533]},{"header":{"parameterUnit":"m.s-1","parameterCategory":1,"la1":30.2991,"la2":30.254,"lo1":-89.0895,"lo2":-89.0444,"dy":0.0017,"dx":0.0017,"nx":28,"ny":28,"refTime":"2024-07-20T03:00:00:Z","depth":0,"parameterNumber":3,"parameterNumberName":"V-component_of_WINDS"},"data":[0,0,0,0,0,0,0,0,0,0,0,0,0,0,0,0,0,0,0,0,0,0,0,0,0,0,0,0,0,0,0,0,0,0,0,0,0,0,0,0,0,0,0,0,0,0,0,0,0,0,0,0,0,0,0,0,0,0,0.4471,0.4471,0,0.4429,0.4429,0.4429,0.4416,0.4416,0.4416,0.4416,0.4371,0.437,0.4369,0,0,0,0,0,0,0,0,0,0,0,0,0,0.4537,0.4535,0.4471,0.447,0.447,0.443,0.4429,0.4428,0.4416,0.4416,0.4416,0.4416,0.4372,0.437,0.4369,0,0,0,0,0,0,0,0,0,0,0,0,0,0.4503,0.4535,0.4471,0.4459,0.4457,0.443,0.4429,0.4428,0.4415,0.4416,0.4416,0.4416,0.4372,0.437,0.4368,0.4349,0,0,0.4362,0.4361,0,0,0,0,0,0,0,0,0.4505,0.45,0.4461,0.446,0.4458,0.4428,0.4436,0.4402,0.4415,0.4431,0.4416,0.4417,0.439,0.4386,0.4378,0.4347,0.4345,0.4362,0.4361,0.436,0.4359,0,0,0,0,0,0,0,0.4507,0.4502,0.4454,0.4461,0.4458,0.4454,0.445,0.4429,0.4409,0.443,0.4429,0.4424,0.4389,0.438,0.4377,0.4345,0.4362,0.436,0.4359,0.4358,0.4296,0.4295,0,0,0,0,0,0,0.4512,0.4504,0.4456,0.4453,0.4483,0.4453,0.4448,0.4437,0.4409,0.4406,0.4424,0.4424,0.4383,0.4379,0.4375,0.4351,0.436,0.4358,0.4357,0.4296,0.4296,0.4295,0,0,0,0,0,0,0.4513,0.4508,0.4457,0.4478,0.4472,0.4452,0.444,0.4436,0.4427,0.4405,0.4401,0.4419,0.4383,0.4378,0.4356,0.4349,0.4357,0.4355,0.4297,0.4296,0.4295,0.4302,0,0,0,0,0,0,0.4515,0.4508,0.4502,0.4478,0.4471,0.444,0.4439,0.4435,0.4424,0.4423,0.4399,0.4395,0.4383,0.4359,0.4354,0.4346,0.4353,0.4297,0.4296,0.4296,0.4302,0.4301,0.4301,0,0,0,0,0,0.4518,0.4505,0.4501,0.4495,0.4462,0.4439,0.4435,0.4422,0.4423,0.4416,0.4402,0.4396,0.4351,0.4357,0.4351,0.4343,0.4298,0.4297,0.4296,0.4302,0.4302,0.4301,0,0,0,0,0,0,0.4527,0.4501,0.4497,0.4477,0.446,0.4437,0.4427,0.4422,0.4404,0.4404,0.4388,0.4383,0.4362,0.435,0.4357,0.4322,0.4324,0.4322,0.4331,0.433,0.4329,0.4332,0.4352,0,0,0,0,0,0.4526,0.4511,0.4489,0.4473,0.4465,0.4448,0.4437,0.4429,0.4411,0.4404,0.4388,0.4371,0.4352,0.434,0.4322,0.43,0.4294,0.4292,0.4291,0.4291,0.4289,0.4276,0.4274,0.4292,0.4292,0.4292,0,0,0.4525,0.4509,0.4501,0.4474,0.4461,0.4444,0.4442,0.4425,0.4412,0.4401,0.4379,0.4367,0.4346,0.4324,0.4313,0.4314,0.4282,0.429,0.4289,0.4288,0.4274,0.4273,0.4271,0.4292,0.4292,0.4292,0,0,0.4515,0.4502,0.4486,0.4473,0.4453,0.4441,0.4438,0.4415,0.4407,0.4385,0.4376,0.4361,0.433,0.4315,0.4304,0.4287,0.4281,0.4282,0.4279,0.4266,0.4265,0.4263,0.4257,0.4255,0.428,0.428,0.428,0,0.4516,0.4491,0.4479,0.4462,0.4451,0.4441,0.4425,0.4412,0.4386,0.4378,0.4379,0.434,0.4325,0.4299,0.4295,0.4286,0.4281,0.4284,0.4266,0.4264,0.4263,0.4257,0.4254,0.4281,0.428,0.428,0.428,0,0.4493,0.4477,0.4466,0.4443,0.443,0.4414,0.4398,0.4387,0.4379,0.4368,0.4345,0.4327,0.4305,0.4298,0.4291,0.4271,0.4271,0.4269,0.427,0.4262,0.4255,0.4253,0.4281,0.4281,0.4281,0.4281,0,0,0.4487,0.4457,0.4453,0.4442,0.4419,0.4406,0.4389,0.4368,0.4358,0.4341,0.4325,0.4299,0.4297,0.4284,0.4275,0.4264,0.4251,0.4263,0.4262,0.4261,0.4228,0.4229,0.4226,0.4247,0.4247,0.4246,0.4229,0,0.4473,0.4443,0.4431,0.4406,0.439,0.4381,0.4366,0.4349,0.4338,0.4322,0.4309,0.429,0.4289,0.4281,0.427,0.4255,0.4244,0.4256,0.4232,0.4231,0.4237,0.4223,0.4225,0.4209,0.4227,0.4226,0.4226,0,0.4453,0.4436,0.441,0.4389,0.4381,0.4368,0.4348,0.4333,0.4314,0.4306,0.4292,0.4283,0.4264,0.4267,0.424,0.4248,0.4237,0.4229,0.4228,0.4224,0.4228,0.4219,0.4204,0.4202,0.4222,0.4222,0.4223,0,0.445,0.4421,0.4401,0.4392,0.4367,0.4358,0.4347,0.4328,0.4316,0.4298,0.429,0.427,0.4259,0.4243,0.4229,0.4232,0.4203,0.4204,0.4195,0.4195,0.4189,0.4189,0.4171,0.4183,0.4183,0.4183,0.4183,0,0.4435,0.442,0.44,0.4388,0.437,0.4356,0.4338,0.4326,0.431,0.4294,0.4284,0.427,0.4252,0.4236,0.4224,0.4203,0.4198,0.4191,0.4188,0.4191,0.4192,0.4184,0.4184,0.4183,0.4183,0.4183,0.4183,0,0.4429,0.4415,0.4393,0.4372,0.4366,0.4353,0.4334,0.4321,0.4309,0.429,0.4285,0.4266,0.4245,0.423,0.4203,0.4196,0.4173,0.417,0.418,0.4178,0.4169,0.417,0.4145,0.414,0.4156,0.4155,0.4155,0,0.442,0.4408,0.4385,0.4375,0.4364,0.4347,0.4335,0.4321,0.4309,0.4286,0.4276,0.4255,0.4238,0.4205,0.4189,0.4168,0.4164,0.4157,0.4161,0.4165,0.4163,0.4164,0.4162,0.4156,0.4156,0.4156,0.4156,0,0.4406,0.44,0.4384,0.4365,0.4351,0.4335,0.4319,0.4311,0.4293,0.428,0.426,0.4246,0.4219,0.4198,0.4176,0.4164,0.4156,0.4155,0.4151,0.4154,0.416,0.4156,0.4177,0.4155,0.4155,0.4155,0.4155,0.4155,0.4398,0.4386,0.4368,0.435,0.4337,0.4322,0.4309,0.4296,0.4279,0.4256,0.4249,0.4228,0.4208,0.4178,0.4165,0.4148,0.4147,0.4143,0.4141,0.414,0.414,0.4164,0.4144,0.4144,0.4144,0.4144,0.4144,0,0.4382,0.4371,0.4354,0.4332,0.4318,0.4314,0.4295,0.4283,0.4265,0.4248,0.4231,0.4207,0.4187,0.4169,0.4147,0.4137,0.4133,0.4132,0.4132,0.4129,0.4142,0.4147,0.4135,0.4135,0.4135,0.4135,0.4135,0.4135,0.4373,0.4353,0.4345,0.4318,0.4306,0.4285,0.4275,0.4261,0.4248,0.4222,0.4205,0.4194,0.4176,0.4153,0.4134,0.4129,0.4121,0.4121,0.4115,0.4127,0.4128,0.4129,0.4133,0.4119,0.4119,0.4103,0.4103,0.4103]}]]